Terminal Aerodrome Forecast
Issued by NWS

Home | Current Version | Previous Version | Text Only | Print | Product List | Glossary On
Versions: 1 2 3 4 5 6 7 8 9 10 11 12 13 14
000
FTUS41 KCAR 211123
TAFPQI
TAF
KPQI 211123Z 2112/2212 13014G23KT 6SM -RA OVC009
     FM220000 14010KT 6SM -RA BKN015
     FM220400 20004KT P6SM BKN045
      AMD LTD TO CLD VIS AND WIND=

USA.gov is the U.S. government's official web portal to all federal, state and local government web resources and services.